Regional Weather Roundup
Issued by NWS

Home | Current Version | Previous Version | Graphics & Text | Print | Product List | Glossary On
Versions: 1 2 3 4 5 6 7 8 9 10 11 12 13 14 15 16 17 18 19 20 21 22 23 24 25 26 27 28 29 30 31 32 33 34 35 36 37 38 39 40 41 42 43 44 45 46 47 48 49 50
000
ASUS43 KLMK 261402
RWRKY
KENTUCKY REGIONAL WEATHER ROUNDUP
NATIONAL WEATHER SERVICE LOUISVILLE KY
1000 AM EDT MON SEP 26 2016

NOTE "FAIR" INDICATES FEW OR NO CLOUDS BELOW 12,000 FEET
WITH NO SIGNIFICANT WEATHER AND/OR OBSTRUCTIONS TO VISIBILITY.

KYZ001>023-026-027-061>063-070>075-261500-
WESTERN AND SOUTH CENTRAL KENTUCKY

CITY           SKY/WX    TMP DP  RH WIND       PRES   REMARKS
PADUCAH        CLOUDY    63  55  75 N9        30.14R
HENDERSON      CLOUDY    63  57  82 NW8       30.14R
OWENSBORO      LGT RAIN N/A N/A N/A W7        30.14R
HOPKINSVILLE   DRIZZLE   63  56  78 N13G21    30.12S
BOWLING GREEN  PTSUNNY   70  60  70 NW9G18    30.09R
GLASGOW        NOT AVBL
$$

KYZ024-025-028>034-038-045-046-053-261500-
NORTH CENTRAL KENTUCKY

CITY           SKY/WX    TMP DP  RH WIND       PRES   REMARKS
LOUISVILLE/SDF HVY RAIN  67  58  72 NW12      30.09R
LOUISVILLE/LOU CLOUDY    67  58  72 NW12G18   30.10R
FORT KNOX      CLOUDY    65  58  76 NW10      30.07S
$$

KYZ035>037-039>044-047>052-055>060-089>105-261500-
NORTHEAST KENTUCKY

CITY           SKY/WX    TMP DP  RH WIND       PRES   REMARKS
LEXINGTON      CLOUDY    70  64  81 N18       30.04R
COVINGTON      CLOUDY    65  58  78 NW13      30.04R
FRANKFORT      CLOUDY    69  59  70 NW14      30.05R
$$

KYZ054-064>069-076>088-106>120-261500-
SOUTHEAST KENTUCKY

CITY           SKY/WX    TMP DP  RH WIND       PRES   REMARKS
JACKSON        MOSUNNY   73  65  75 VRB3      30.03S
LONDON         MOSUNNY   75  64  68 SW7       30.05R
SOMERSET       SUNNY     73  64  73 CALM      30.05S
MIDDLESBORO    CLOUDY    76  65  70 S7        30.07S
MONTICELLO     SUNNY     77  67  71 VRB6      30.06
$$





USA.gov is the U.S. government's official web portal to all federal, state and local government web resources and services.